Regional Weather Roundup
Issued by NWS Kansas City/Pleasant Hill, MO

Home | Current Version | Previous Version | Graphics & Text | Print | Product List | Glossary Off
Versions: 1 2 3 4 5 6 7 8 9 10 11 12 13 14 15 16 17 18 19 20 21 22 23 24 25 26 27 28 29 30 31 32 33 34 35 36 37 38 39 40 41 42 43 44 45 46 47 48 49 50

000
ASUS43 KEAX 080010
RWREAX

WEATHER ROUNDUP FOR EASTERN KANSAS AND NORTHWEST MISSOURI
NATIONAL WEATHER SERVICE KANSAS CITY/PLEASANT HILL MO
600 PM CST SUN FEB 07 2016

KSZ040-057-103>105-MOZ028-029-037-043-080100-
...KANSAS CITY METROPOLITAN AREA...

CITY           SKY/WX    TMP DP  RH WIND       PRES   REMARKS
K.C. INTL      CLOUDY    45  20  36 NW23G35   29.99S
6HR MIN TEMP:  45; 6HR MAX TEMP:  52;

K.C. DOWNTOWN  CLOUDY    48  17  29 NW22G30   29.99S
6HR MIN TEMP:  48; 6HR MAX TEMP:  54;

LEES SUMMIT    CLOUDY    47  16  29 NW29G40   30.00R
6HR MIN TEMP:  47; 6HR MAX TEMP:  52;

OLATHE - IXD   CLOUDY    46  17  31 NW16G29   30.02S
6HR MIN TEMP:  46; 6HR MAX TEMP:  52;

OLATHE - OJC   CLOUDY    46  14  27 NW22G31   30.01S
6HR MIN TEMP:  46; 6HR MAX TEMP:  52; 6HR PCP: TRACE;

LAWRENCE       CLOUDY    46  19  34 NW18G30   30.03F

$$

MOZ001>008-011>017-020>025-030>033-038>040-044>046-053-054-080100-
...NORTHERN AND CENTRAL MISSOURI...

CITY           SKY/WX    TMP DP  RH WIND       PRES   REMARKS
ST. JOSEPH     CLOUDY    41  24  51 NW35G43   30.00R WCI  29
6HR MIN TEMP:  41; 6HR MAX TEMP:  51; 6HR PCP: TRACE;

MOSBY          CLOUDY    46  18  31 W21G37    29.98S
WARRENSBURG    PTCLDY    43  19  39 W12G17    29.98F
WHITEMAN AFB   MOCLDY    46  19  34 NW22G28   29.97S
                                      6HR PCP: TRACE;

CLINTON          N/A     46  25  42 W10       30.01R
SEDALIA        MOCLDY    46  20  35 W18G35    29.97F
6HR MIN TEMP:  46; 6HR MAX TEMP:  53;

WARSAW         NOT AVBL
CHILLICOTHE      N/A     45  25  45 W18G35    29.96R
6HR MIN TEMP:  45; 6HR MAX TEMP:  53;

KIRKSVILLE     MOCLDY    41  21  44 W7        29.89F
6HR MIN TEMP:  41; 6HR MAX TEMP:  51; 6HR PCP: TRACE;


$$

MOZ041-047>049-056>058-063>065-088>090-097-080100-
...EASTERN AND SOUTHERN MISSOURI...

CITY           SKY/WX    TMP DP  RH WIND       PRES   REMARKS
ST. LOUIS INTL CLOUDY    50  29  44 W8        29.90S
6HR MIN TEMP:  50; 6HR MAX TEMP:  55;

SPIRIT OF STL  CLOUDY    49  29  46 W9G18     29.89S
COLUMBIA       CLOUDY    47  24  40 W17G29    29.94R
JEFFERSON CITY CLOUDY    48  23  37 W16G22    29.95R
ROLLA          CLOUDY    46  26  45 W9        29.94S
OSAGE BEACH    CLOUDY    48  19  32 W7        29.97S
SPRINGFIELD    CLOUDY    48  19  31 NW10G18   30.00F
BRANSON        PTCLDY    48  23  37 W8        30.03F
JOPLIN         PTCLDY    47  22  37 NW9       30.05S
WEST PLAINS    CLOUDY    49  23  36 W14       29.99R

$$

IAZ060-094-KSZ022-034>040-054-083-096-NEZ052-066-093-080100-
...KANSAS...SOUTHEAST NEBRASKA AND IOWA...

CITY           SKY/WX    TMP DP  RH WIND       PRES   REMARKS
TOPEKA         LGT RAIN  47  18  31 NW29G41   30.05R
6HR MIN TEMP:  47; 6HR MAX TEMP:  54; 6HR PCP: TRACE;

MANHATTAN      CLOUDY    46  20  35 NW17G31   30.10R
EMPORIA        CLOUDY    47  14  26 NW22G29   30.08S
CHANUTE        CLEAR     48  15  26 NW20G32   30.09R
WICHITA        PTCLDY    47  19  33 NW24G35   30.15R
OMAHA          FLURRIES  36  30  79 W25G32    29.96R WCI  24
LINCOLN        CLOUDY    37  28  70 W18G26    30.04S WCI  27
FALLS CITY     CLOUDY    38  28  67 NW28G36   30.02R WCI  26
LAMONI         CLOUDY    37  27  67 NW30      29.91R WCI  24
DES MOINES     FLURRIES  35  30  82 W14G25    29.87R WCI  26

$$




USA.gov is the U.S. government's official web portal to all federal, state and local government web resources and services.